Celoron, NY

12:10 PM EDT on October 01, 2016 (GMT -0400)
Chautauqua County-Jamestown

Weather History for KJHW - October, 2013

Change the Weather History Date:

Monday, October 7, 2013

  Actual Average Record
Temperature  
Mean Temperature 58 °F -  
Max Temperature 71 °F 61 °F 79 °F (1982)
Min Temperature 44 °F 39 °F 30 °F (1960)
Degree Days  
Heating Degree Days 8    
Growing Degree Days 8 (Base 50)    
Moisture  
Dew Point 47 °F    
Average Humidity 75    
Maximum Humidity 94    
Minimum Humidity 58    
Precipitation  
Precipitation 0.55 in - - ()
Sea Level Pressure  
Sea Level Pressure 29.83 in    
Wind  
Wind Speed 13 mph (SW)    
Max Wind Speed 24 mph    
Max Gust Speed 32 mph    
Visibility 10 miles    
Events      
Averages and records for this station are not official NWS values.
T = Trace of Precipitation, MM = Missing Value Source: NWS Daily Summary

Daily Weather History Graph

Daily Weather History Graph

Search for Another Location

Airport or City:

Trip Planner

Search our weather history database for the weather conditions in past years. The results will help you decide how hot, cold, wet, or windy it might be!

Date:

Astronomy

Oct. 07, 2013 Rise Set
Actual Time 7:20 AM EDT 6:47 PM EDT
Civil Twilight 6:52 AM EDT 7:15 PM EDT
Nautical Twilight 6:20 AM EDT 7:48 PM EDT
Astronomical Twilight 5:47 AM EDT 8:20 PM EDT
Moon 10:12 AM EDT (10/7) 8:27 PM EDT (10/7)
Length of Visible Light 12h 23m
Length of Day
11h 27m
Waxing Crescent, 8% of the Moon is Illuminated
Oct 7
Waxing Crescent
Oct 11
First Quarter
Oct 18
Full
Oct 26
Last Quarter
Nov 3
New

Hourly Weather History & Observations

Time (EDT) Temp. Windchill Dew Point Humidity Pressure Visibility Wind Dir Wind Speed Gust Speed Precip Events Conditions
12:15 AM 71.6 °F - 57.2 °F 60% 29.77 in 10.0 mi South 13.8 mph 20.7 mph N/A   Partly Cloudy
12:35 AM 69.8 °F - 57.2 °F 64% 29.76 in 10.0 mi SSE 18.4 mph 23.0 mph N/A   Clear
12:55 AM 69.8 °F - 57.2 °F 64% 29.75 in 10.0 mi SSE 12.7 mph 18.4 mph N/A   Scattered Clouds
1:15 AM 69.8 °F - 57.2 °F 64% 29.74 in 10.0 mi SSE 16.1 mph 20.7 mph N/A   Mostly Cloudy
1:35 AM 69.8 °F - 57.2 °F 64% 29.74 in 10.0 mi South 12.7 mph 21.9 mph N/A   Scattered Clouds
1:55 AM 69.8 °F - 57.2 °F 64% 29.73 in 10.0 mi SSE 11.5 mph 18.4 mph N/A   Partly Cloudy
2:15 AM 69.8 °F - 57.2 °F 64% 29.73 in 10.0 mi South 15.0 mph 21.9 mph N/A   Mostly Cloudy
2:35 AM 69.8 °F - 57.2 °F 64% 29.72 in 10.0 mi South 12.7 mph 17.3 mph N/A   Overcast
2:55 AM 68.0 °F - 57.2 °F 68% 29.71 in 10.0 mi SSE 12.7 mph 16.1 mph N/A   Overcast
3:15 AM 68.0 °F - 57.2 °F 68% 29.70 in 10.0 mi South 11.5 mph - N/A   Overcast
3:35 AM 68.0 °F - 57.2 °F 68% 29.70 in 10.0 mi South 12.7 mph 23.0 mph N/A   Overcast
3:55 AM 68.0 °F - 57.2 °F 68% 29.70 in 10.0 mi South 12.7 mph 19.6 mph N/A   Overcast
4:15 AM 62.6 °F - 57.2 °F 82% 29.70 in 10.0 mi West 8.1 mph 17.3 mph N/A   Overcast
4:35 AM 59.0 °F - 55.4 °F 88% 29.72 in 10.0 mi West 13.8 mph 18.4 mph N/A   Overcast
4:55 AM 57.2 °F - 53.6 °F 88% 29.73 in 10.0 mi West 12.7 mph - N/A   Overcast
5:15 AM 57.2 °F - 53.6 °F 88% 29.73 in 10.0 mi West 10.4 mph - 0.01 in   Overcast
5:35 AM 57.2 °F - 53.6 °F 88% 29.73 in 10.0 mi WSW 11.5 mph - 0.02 in   Overcast
5:55 AM 55.4 °F - 53.6 °F 94% 29.72 in 10.0 mi WSW 8.1 mph - 0.05 in   Overcast
6:15 AM 55.4 °F - 53.6 °F 94% 29.73 in 10.0 mi SSW 8.1 mph - 0.03 in   Overcast
6:35 AM 55.4 °F - 51.8 °F 88% 29.73 in 10.0 mi SW 6.9 mph - 0.09 in   Overcast
6:55 AM 55.4 °F - 51.8 °F 88% 29.73 in 10.0 mi SW 9.2 mph - 0.17 in   Overcast
7:15 AM 55.4 °F - 51.8 °F 88% 29.73 in 10.0 mi South 8.1 mph - 0.04 in   Overcast
7:35 AM 53.6 °F - 51.8 °F 94% 29.74 in 10.0 mi SSW 9.2 mph - 0.09 in   Overcast
7:55 AM 53.6 °F - 51.8 °F 94% 29.74 in 10.0 mi SSW 6.9 mph - 0.16 in   Mostly Cloudy
8:15 AM 53.6 °F - 51.8 °F 94% 29.74 in 8.0 mi South 6.9 mph - 0.03 in   Overcast
8:35 AM 51.8 °F - 48.2 °F 88% 29.74 in 6.0 mi SSW 11.5 mph 19.6 mph 0.06 in   Overcast
8:55 AM 51.8 °F - 48.2 °F 88% 29.75 in 8.0 mi SSW 12.7 mph 21.9 mph 0.09 in   Overcast
9:15 AM 51.8 °F - 48.2 °F 88% 29.76 in 10.0 mi SSW 12.7 mph 17.3 mph 0.01 in   Mostly Cloudy
9:35 AM 51.8 °F - 48.2 °F 88% 29.77 in 10.0 mi SSW 9.2 mph 19.6 mph 0.03 in   Overcast
9:55 AM 51.8 °F - 48.2 °F 88% 29.78 in 10.0 mi SSW 10.4 mph 16.1 mph 0.04 in   Overcast
10:15 AM 51.8 °F - 48.2 °F 88% 29.78 in 7.0 mi SSW 12.7 mph 19.6 mph 0.01 in   Overcast
10:35 AM 50.0 °F - 46.4 °F 87% 29.79 in 8.0 mi WSW 11.5 mph - 0.01 in   Mostly Cloudy
10:55 AM 48.2 °F - 46.4 °F 93% 29.78 in 7.0 mi SW 16.1 mph 23.0 mph 0.01 in   Mostly Cloudy
11:15 AM 48.2 °F - 44.6 °F 87% 29.79 in 10.0 mi SW 15.0 mph 19.6 mph N/A   Mostly Cloudy
11:35 AM 50.0 °F - 44.6 °F 82% 29.80 in 10.0 mi SW 15.0 mph - N/A   Overcast
11:55 AM 50.0 °F - 41.0 °F 71% 29.80 in 10.0 mi SW 16.1 mph 26.5 mph N/A   Mostly Cloudy
12:15 PM 51.8 °F - 41.0 °F 67% 29.80 in 10.0 mi SW 19.6 mph 25.3 mph N/A   Clear
12:35 PM 53.6 °F - 39.2 °F 58% 29.80 in 10.0 mi SW 18.4 mph 27.6 mph N/A   Partly Cloudy
12:55 PM 53.6 °F - 39.2 °F 58% 29.81 in 10.0 mi SW 17.3 mph 25.3 mph N/A   Scattered Clouds
1:15 PM 51.8 °F - 37.4 °F 58% 29.81 in 10.0 mi SW 20.7 mph - N/A   Mostly Cloudy
1:35 PM 53.6 °F - 39.2 °F 58% 29.80 in 10.0 mi SW 24.2 mph 32.2 mph N/A   Mostly Cloudy
1:55 PM 51.8 °F - 39.2 °F 62% 29.80 in 10.0 mi SW 17.3 mph 27.6 mph N/A   Mostly Cloudy
2:15 PM 53.6 °F - 39.2 °F 58% 29.80 in 10.0 mi SW 21.9 mph 28.8 mph N/A   Overcast
2:35 PM 53.6 °F - 39.2 °F 58% 29.81 in 10.0 mi SW 23.0 mph 28.8 mph N/A   Mostly Cloudy
2:55 PM 53.6 °F - 39.2 °F 58% 29.82 in 10.0 mi SW 21.9 mph 26.5 mph N/A   Overcast
3:15 PM 51.8 °F - 39.2 °F 62% 29.84 in 10.0 mi SW 23.0 mph 28.8 mph N/A   Overcast
3:35 PM 51.8 °F - 39.2 °F 62% 29.85 in 10.0 mi SW 19.6 mph 27.6 mph N/A   Overcast
3:55 PM 51.8 °F - 39.2 °F 62% 29.86 in 10.0 mi SW 19.6 mph 31.1 mph N/A   Overcast
4:15 PM 51.8 °F - 39.2 °F 62% 29.86 in 10.0 mi SW 24.2 mph 31.1 mph N/A   Mostly Cloudy
4:35 PM 51.8 °F - 39.2 °F 62% 29.87 in 10.0 mi SW 13.8 mph 26.5 mph N/A   Overcast
4:55 PM 51.8 °F - 37.4 °F 58% 29.88 in 10.0 mi SW 12.7 mph 23.0 mph N/A   Overcast
5:15 PM 51.8 °F - 39.2 °F 62% 29.89 in 10.0 mi SSW 9.2 mph 17.3 mph N/A   Overcast
5:35 PM 51.8 °F - 39.2 °F 62% 29.89 in 10.0 mi SSW 11.5 mph 18.4 mph N/A   Overcast
5:55 PM 51.8 °F - 39.2 °F 62% 29.91 in 10.0 mi SSW 10.4 mph 16.1 mph N/A   Overcast
6:15 PM 51.8 °F - 39.2 °F 62% 29.91 in 10.0 mi SW 11.5 mph 17.3 mph N/A   Overcast
6:35 PM 51.8 °F - 39.2 °F 62% 29.92 in 10.0 mi SW 12.7 mph 20.7 mph N/A   Overcast
6:55 PM 51.8 °F - 39.2 °F 62% 29.93 in 10.0 mi SW 12.7 mph 19.6 mph N/A   Overcast
7:15 PM 51.8 °F - 39.2 °F 62% 29.94 in 10.0 mi SSW 10.4 mph 18.4 mph N/A   Overcast
7:35 PM 50.0 °F - 39.2 °F 66% 29.96 in 10.0 mi SW 10.4 mph 20.7 mph N/A   Overcast
7:55 PM 48.2 °F - 41.0 °F 76% 29.97 in 10.0 mi SW 12.7 mph - N/A   Overcast
8:15 PM 48.2 °F - 42.8 °F 82% 29.98 in 10.0 mi SSW 10.4 mph - N/A   Overcast
8:35 PM 44.6 °F 40.2 °F 42.8 °F 93% 29.99 in 10.0 mi SSW 8.1 mph 17.3 mph N/A   Overcast
8:55 PM 48.2 °F - 42.8 °F 82% 30.00 in 10.0 mi SW 12.7 mph 16.1 mph N/A   Overcast
9:15 PM 48.2 °F - 44.6 °F 87% 30.01 in 7.0 mi SW 10.4 mph - 0.01 in   Overcast
9:35 PM 48.2 °F - 44.6 °F 87% 30.03 in 8.0 mi West 8.1 mph - 0.03 in   Overcast
9:55 PM 48.2 °F - 44.6 °F 87% 30.05 in 10.0 mi WSW 10.4 mph 16.1 mph 0.03 in   Overcast
10:15 PM 48.2 °F - 44.6 °F 87% 30.06 in 10.0 mi WSW 8.1 mph - N/A   Overcast
10:35 PM 48.2 °F - 44.6 °F 87% 30.06 in 10.0 mi WSW 6.9 mph - N/A   Overcast
10:55 PM 46.4 °F 42.9 °F 44.6 °F 93% 30.07 in 10.0 mi WSW 6.9 mph - N/A   Scattered Clouds
11:15 PM 46.4 °F 42.9 °F 42.8 °F 87% 30.07 in 5.0 mi WSW 6.9 mph - N/A   Partly Cloudy
11:35 PM 46.4 °F 42.9 °F 44.6 °F 93% 30.08 in 5.0 mi WSW 6.9 mph - N/A   Partly Cloudy
11:55 PM 46.4 °F 44.3 °F 44.6 °F 93% 30.09 in 5.0 mi SW 4.6 mph - N/A   Clear